www.pogodaiklimat.ru

Погода и климат >> Архив погоды >> Россия >> Ямало-Ненецкий АО >> Имени Попова


АРХИВ ПОГОДЫ в Имени Попова

Время (UTC), дата Ветер
(напр.,м/с)
 
Видим.   Явления Облачность Т
(С)
Тd
(С)
f
(%)
Тe
(С)
Тes
(С)
Комфортность P
(гПа)
Po
(гПа)
Тmin
(С)
Tmax
(С)
R
(мм)
R24
(мм)
S
(см)
00 16.04 С 6 20 км {метель} ясно -24.4 -27.1 78 -37 -36 опасность
обморожения
1024.7 1023.9
03 16.04 С 6 4000 м позёмок ясно -21.5 -24.2 79 -33 -32 опасность
обморожения
1025.6 1024.8 -25.0 54
06 16.04 С 10-12
{12}
1000 м сильная метель ясно -18.3 -20.8 81 -31 -31 опасность
обморожения
1026.1 1025.3
09 16.04 С 7
{12}
20 км позёмок ясно -17.3 -20.0 79 -28 -27 1026.9 1026.2
12 16.04 С 6 20 км позёмок 1/0
[Ci fib]
-17.5 -19.9 81 -28 -27 1027.9 1027.1
15 16.04 С 3 20 км {метель} 6/0
[Ci fib]
-20.7 -22.6 85 -28 -28 1027.5 1026.7 -17.0
18 16.04 З 2 20 км {метель} 10/0
[As trans]
-22.1 -24.2 83 -28 -28 1025.7 1024.9
21 16.04 Ю 2 20 км 10/0
[As trans]
-22.8 -25.3 80 -29 -29 1024.2 1023.4
00 17.04 Ю 3 20 км 10/0
[As op Ci]
-20.8 -23.2 81 -29 -28 1021.3 1020.5
03 17.04 Ю 6 1000 м позёмок 9/0
[Cs]
-19.4 -21.6 83 -30 -29 1017.6 1016.8 -23.8 55
06 17.04 Ю 8
{10}
1000 м позёмок 10/0
[Cs]
-15.3 -17.4 84 -26 -26 1014.3 1013.6
09 17.04 Ю 9-12
{12}
1000 м слаб. снег {метель} 10/0
[As op]
-13.2 -15.2 85 -24 -24 1012.1 1011.3
12 17.04 Ю 7
{12}
20 км позёмок {снег} 10/0
[Ac und]
-11.8 -13.6 86 -21 -21 1010.4 1009.7
15 17.04 Ю 8 2000 м снег {метель} 10/0 540 м
[As op]
-11.0 -12.6 88 -21 -21 1009.1 1008.4 -11.0 0.0
18 17.04 Ю 7
{10}
1000 м сильн. снег {метель} 10/0 360 м
[As op]
-11.9 -13.5 88 -21 -21 1008.1 1007.4
21 17.04 Ю 8
{10}
1000 м сильн. снег {метель} 10/0 420 м
[As op]
-13.1 -14.9 86 -23 -23 1007.7 1007.0
00 18.04 Ю 7 2000 м снег {метель} 10/0 400 м
[As op]
-14.1 -16.0 85 -24 -24 1007.2 1006.5
03 18.04 Ю 6 20 км позёмок {снег} 10/3 300 м
[Sc As trans Cc]
-14.1 -16.1 85 -23 -23 1006.0 1005.2 -14.2 0.6 55
06 18.04 Ю 6 4000 м слаб. снег {метель} 10/0 450 м
[As op]
-10.9 -12.6 87 -20 -19 1004.6 1003.9
09 18.04 Ю 6 4000 м слаб. снег {метель} 10/0 540 м
[As op]
-8.6 -10.3 87 -17 -17 1004.3 1003.6
12 18.04 Ю 3 1000 м сильн. снег {метель} 10/0 400 м
[As op]
-8.1 -9.6 89 -14 -14 1003.8 1003.1
15 18.04 В 3 2000 м снег 10/0 480 м
[As op]
-9.3 -10.7 90 -15 -15 1004.1 1003.4 -8.1 0.9
18 18.04 СВ 5 20 км в посл. час снег 8/0
[Ac trans Cc]
-16.7 -18.4 87 -26 -26 1005.2 1004.4
21 18.04 СВ 5 2000 м дымка 10/3 300 м
[Sc Cs]
-20.3 -22.3 84 -30 -30 1006.2 1005.4
00 19.04 С 3 4000 м дымка ясно -20.4 -22.7 82 -28 -28 1008.0 1007.2
03 19.04 С 2 4000 м слаб. снег 10/0
[Ac As]
-18.6 -20.9 82 -24 -23 1009.4 1008.6 -21.1 0.4 57
06 19.04 С 5 20 км {снег} ясно -15.5 -17.6 84 -24 -22 1010.8 1010.1
09 19.04 С 5 20 км ясно -14.1 -16.1 85 -23 -20 1012.5 1011.7
12 19.04 С 4 20 км ясно -15.9 -17.9 85 -24 -22 1013.8 1013.0
15 19.04 С 5 20 км ясно -21.0 -23.4 81 -31 -31 опасность
обморожения
1014.8 1014.1 -14.0 0.0
18 19.04 С 3 20 км ясно -25.1 -27.6 80 -34 -34 опасность
обморожения
1015.1 1014.3
21 19.04 СВ 1 200 м переохл. туман 10/0
[Ci fib]
-24.8 -27.4 79 -28 -28 1014.8 1014.0
00 20.04 Ю 1 200 м переохл. туман 10/0
[Ci fib]
-27.9 -31.1 74 -32 -32 опасность
обморожения
1013.9 1013.1
03 20.04 Ю 3 20 км в посл. час туман 10/10 900 м
[Sc]
-19.5 -22.0 80 -27 -27 1012.2 1011.5 -28.3 57
06 20.04 Ю 8 4000 м слаб. снег {туман} 10/0 500 м
[As op]
-14.7 -16.7 85 -26 -25 1009.4 1008.7
09 20.04 Ю 10-13
{13}
1000 м сильн. снег {метель} 10/0 540 м
[As op]
-11.3 -13.1 87 -22 -22 1006.3 1005.6
12 20.04 ЮЗ 9-12
{13}
2000 м снег {метель} 10/0 570 м
[As op]
-7.8 -9.3 89 -18 -18 1003.5 1002.8
15 20.04 ЮЗ 7
{12}
4000 м дымка {снег} 10/10 240 м
[St]
-6.7 -7.7 93 -15 -15 1001.3 1000.6 -6.7 0.4
18 20.04 Ю 5 1000 м слаб. снег {метель} 10/10 210 м
[Frnb Ns]
-5.7 -6.3 96 -13 -13 999.3 998.6
21 20.04 ЮЗ 4 200 м переохл. туман {снег} ?/? -4.6 -5.3 95 -11 -11 998.0 997.3
00 21.04 ЮЗ 2 500 м переохл. туман {снег} 10/10 210 м
[St]
-3.6 -4.2 96 -8 -8 997.5 996.8
03 21.04 З 4 20 км {туман} 10/10 450 м
[Sc]
-2.0 -2.5 96 -8 -8 997.8 997.1 -6.7 0.0 57
06 21.04 С 4 20 км {туман} 10/10 210 м
[St]
-2.3 -2.9 96 -8 -8 998.4 997.7
09 21.04 С 5 20 км 10/10 270 м
[St]
-3.8 -4.7 93 -11 -11 999.6 998.9
12 21.04 С 3 20 км 10/10 270 м
[St]
-6.2 -7.1 93 -12 -12 1000.3 999.5
15 21.04 ЮЗ 1 20 км 10/10 210 м
[St]
-6.6 -7.4 94 -9 -9 999.1 998.4 -1.7
18 21.04 Ю 1 <100 м переохл. туман ?/? -6.1 -6.9 94 -9 -9 997.5 996.8
21 21.04 ЮВ 5 200 м переохл. туман ?/? -5.5 -6.2 95 -13 -13 993.7 993.0
00 22.04 Ю 8 4000 м слаб. снег {туман} 10/0 300 м
[As op]
-3.6 -4.1 96 -12 -12 989.6 988.9
03 22.04 Ю 6 10 км слаб. снег {метель} 10/10 270 м
[Frnb Ns]
-3.1 -3.6 96 -11 -11 985.9 985.2 -6.9 0.6 57
06 22.04 Ю 5 20 км {снег, метель} 10/0
[As trans]
-1.7 -2.3 96 -8 -7 983.0 982.3
09 22.04 ЮЗ 3 20 км {снег, метель} 10/0
[As trans]
-1.0 -1.7 95 -6 -4 981.6 980.9
12 22.04 З 2 4000 м слаб. снег {метель} 10/10 240 м
[Frnb Ns]
-1.0 -1.5 96 -5 -5 980.4 979.7
15 22.04 СЗ 8 4000 м слаб. снег {метель} 10/0 360 м
[As op]
-3.5 -4.2 95 -12 -12 980.2 979.5 -0.9 0.9
18 22.04 С 20-24
{26}
<50 м сильная метель ?/? -10.5 -11.8 90 -25 -25 983.6 982.8
21 22.04 С 20-26
{26}
<50 м сильная метель ?/? -14.1 -15.8 87 -29 -29 989.8 989.1

 

Местоположение метеостанции Имени Попова (Ямало-Ненецкий АО, Россия): широта 73.33 долгота 70.05 высота над уровнем моря 6 м.

В архиве по умолчанию представлена погода в Имени Попова за последнюю неделю. Архивные данные за месяц целиком и за предыдущие месяцы, начиная с января 2011 года, Вы можете получить, выбрав интересующий диапазон дат из раскрывающегося списка и нажав кнопку "Ввод!".


*Определитесь, кто Вы:
робот инопланетянин человек

Внимание! Время в таблицах - всемирное. Для получения местного времени необходимо прибавить поправку, которая равна 5 ч.

Смотрите также архив погоды в соседних городах и на ближайших метеорологических станциях:

Погода в Тамбее (Ямало-Ненецкий АО, Россия) (214 км)
Погода на Острове Диксон (Красноярский край, Россия) (329 км)
Погода в Сеяхе (Ямало-Ненецкий АО, Россия) (362 км)
Погода в Гыде (Ямало-Ненецкий АО, Россия) (396 км)
Погода на Мысе Желания (Архангельская область, Россия) (405 км)
Погода в Марресале (Ямало-Ненецкий АО, Россия) (418 км)
Погода в Сопочной Карге (Красноярский край, Россия) (450 км)
Погода на Островах Известий ЦИК (Красноярский край, Россия) (477 км)
Погода в Усть-Каре (Ненецкий АО, Россия) (489 км)
Погода в Амдерме (Ненецкий АО, Россия) (493 км)

Пояснения к столбцам:

Ветер - указаны скорость ветра в м/с - средняя за 10 мин, порывы в срок и между сроками (в фигурных скобках) и направление, откуда дует ветер: С - северный, СВ - северо-восточный, В - восточный, ЮВ - юго-восточный, Ю - южный, ЮЗ - юго-западный, З - западный, СЗ - северо-западный.
Видимость - горизонтальная дальность видимости в метрах или километрах. При видимости от 1 до 10 км при отсутствии осадков обычно наблюдается дымка, при ухудшении видимости до 1 км и менее - туман. В сухую погоду видимость может ухудшаться дымом, пылью или мглою.
Явления - указаны атмосферные явления, наблюдавшиеся в срок или в последний час перед сроком; фигурными скобками обозначены явления, наблюдавшиеся между сроками (за 1-3 часа до срока); квадратными скобками обозначены град или гололедные отложения с указанием их диаметра в мм.
Облачность - указаны через наклонную черту общая и нижняя облачность в баллах и высота нижней границы облаков в метрах; квадратными скобками обозначены формы облаков: Ci - перистые, Cs - перисто-слоистые, Cc - перисто-кучевые, Ac - высококучевые, As - высокослоистые, Sc - слоисто-кучевые, Ns - слоисто-дождевые, Cu - кучевые, Cb - кучево-дождевые. Подробнее классификацию облаков см. в Атласе облаков (PDF).
T - Температура воздуха - температура, измеренная на высоте 2 м над землей.
Td - Температура точки росы - температура, при понижении до которой содержащийся в воздухе водяной пар достигнет насыщения.
f - Относительная влажность воздуха - влажноcть воздуха, измеренная на высоте 2 м над землей.
Te - Эффективная температура - температура, которую ощущает одетый по сезону человек в тени. Характеристика душности погоды. При расчете учитывается влияние влажности воздуха и скорости ветра на теплоощущения человека.
Tes - Эффективная температура на солнце - температура, которую ощущает человек, с поправкой на солнечный нагрев. Характеристика знойности погоды. Зависит от высоты солнца над горизонтом, облачности и скорости ветра. Ночью, в пасмурную погоду, а также при ветре 12 м/с и более поправка равна нулю.
P - Атмосферное давление - приведенное к уровню моря атмосферное давление.
Po - Атмосферное давление - измеренное на уровне метеостанции атмосферное давление.
Tmin - Минимальная температура - минимум температуры воздуха на высоте 2 м над землей.
Tmax - Максимальная температура - максимум температуры воздуха на высоте 2 м над землей.
R - Количество осадков - Количество выпавших осадков за период времени, мм. При наведении курсора мыши на число - период времени, за который выпало указанное количество осадков.
R24 - Количество осадков - Количество выпавших осадков за 24 часа, мм.
S - Снежный покров - Высота снежного покрова, см. При наведении курсора мыши на число - состояние снежного покрова и степень покрытия местности в баллах.